"2016-05-02 00:00:00",1596891,1.395,120.7,19.77,1.361,5.503,101.087,2.073,3.245,68.73,0,110.1,13.25,2.83,82.7
"2016-05-02 00:00:30",1596892,0.715,159,53.72,1.39,5.654,101.0797,2.054,3.191,68.73,0,110.1,13.25,2.81,121.0
"2016-05-02 00:01:00",1596893,-0.111,158.9,62.75,0.134,4.128,101.0585,2,3.082,68.25,0,110.1,13.29,2.76,120.9
"2016-05-02 00:01:30",1596894,0.378,82.4,20.62,1.003,4.597,101.0285,1.924,3.045,68.38,0,110.1,13.25,2.68,44.4
"2016-05-02 00:02:00",1596895,1.123,117,28.67,1.389,6.189,101.0237,1.911,3.186,68.55,0,110.1,13.25,2.67,79.0
"2016-05-02 00:02:30",1596896,2.183,128.4,8.15,1.368,6.987,101.0116,1.88,3.188,68.28,0,110.1,13.25,2.64,90.4
"2016-05-02 00:03:00",1596897,1.202,123.4,9.48,1.234,5.506,100.9932,1.834,3.05,67.95,0,110.1,13.24,2.59,85.4
"2016-05-02 00:03:30",1596898,1.093,106,4.998,0.181,3.77,100.9858,1.815,2.926,67.84,0,110.1,13.29,2.57,68.0
"2016-05-02 00:04:00",1596899,0.798,108.3,8.98,0.328,3.88,100.9864,1.816,2.9,67.83,0,110.1,13.29,2.57,70.3
"2016-05-02 00:04:30",1596900,1.481,124.2,11.35,1.197,5.364,100.9839,1.81,3.003,68.03,0,110.1,13.25,2.57,86.2
"2016-05-02 00:05:00",1596901,1.179,137.4,17.7,1.566,5.421,100.9827,1.807,2.946,68.7,0,110.1,13.24,2.57,99.4
"2016-05-02 00:05:30",1596902,1.369,121.5,12.26,1.382,4.855,100.9906,1.827,2.914,69.74,0,110.1,13.25,2.59,83.5
"2016-05-02 00:06:00",1596903,1.354,129.8,10.82,1.078,4.894,101.0087,1.873,3.073,70.75,0,110.1,13.25,2.63,91.8
"2016-05-02 00:06:30",1596904,2.282,122.6,12.51,1.394,7.288,101.0169,1.894,3.111,71.38,0,110.1,13.24,2.65,84.6
"2016-05-02 00:07:00",1596905,1.983,128.4,7.222,1.349,6.053,101.0166,1.893,3.111,71.65,0,110.1,13.23,2.65,90.4
"2016-05-02 00:07:30",1596906,1.468,116.2,3.053,0.13,3.993,101.0166,1.893,2.923,71.71,0,110.1,13.28,2.65,78.2
"2016-05-02 00:08:00",1596907,1.474,116.5,7.961,0.526,4.364,101.0254,1.915,2.989,71.89,0,110.1,13.24,2.67,78.5
"2016-05-02 00:08:30",1596908,2.492,129.1,7.129,1.473,6.794,101.0448,1.965,3.101,72,0,110.1,13.23,2.72,91.1
"2016-05-02 00:09:00",1596909,2.146,133.4,8.04,1.406,6.502,101.0505,1.98,3.132,72.06,0,110.1,13.23,2.74,95.4
"2016-05-02 00:09:30",1596910,1.458,104,14.04,1.103,5.507,101.0505,1.98,3.148,72.12,0,110.1,13.24,2.74,66.0
"2016-05-02 00:10:00",1596911,3.042,97.7,11.29,1.352,6.601,101.0505,1.98,3.113,72.07,0,110.1,13.23,2.74,59.7
"2016-05-02 00:10:30",1596912,3.135,88.7,9.81,1.425,7.067,101.0553,1.992,3.238,72.01,0,110.1,13.23,2.75,50.7
"2016-05-02 00:11:00",1596913,1.697,86,11.2,0.763,4.717,101.0581,1.999,3.094,71.5,0,110.1,13.24,2.76,48.0
"2016-05-02 00:11:30",1596914,1.003,99.5,3.871,0.209,4.359,101.0516,1.983,3.037,70.07,0,110.1,13.28,2.74,61.5
"2016-05-02 00:12:00",1596915,2.467,103.3,9.83,1.395,6.793,101.0516,1.983,3.234,69.61,0,110.1,13.24,2.74,65.3
"2016-05-02 00:12:30",1596916,2.027,92.7,10.25,1.142,5.497,101.0522,1.984,3.151,69.62,0,110.1,13.24,2.74,54.7
"2016-05-02 00:13:00",1596917,2.223,110.2,5.899,1.382,7.04,101.0559,1.993,3.229,70.09,0,110.1,13.24,2.75,72.2
"2016-05-02 00:13:30",1596918,0.93,101.3,6.235,0.093,4.101,101.0551,1.991,3.053,70.02,0,110.1,13.29,2.75,63.3
"2016-05-02 00:14:00",1596919,2.379,103.4,9.23,1.401,7.452,101.0602,2.004,3.243,70.11,0,110.1,13.24,2.76,65.4
"2016-05-02 00:14:30",1596920,1.944,93.8,8.64,1.375,6.325,101.0624,2.01,3.161,70.3,0,110.1,13.24,2.77,55.8
"2016-05-02 00:15:00",1596921,1.75,81.6,3.55,0.153,4.719,101.0605,2.005,3.045,70.3,0,110.1,13.29,2.76,43.6
"2016-05-02 00:15:30",1596922,2.011,75.5,5.295,1.057,4.931,101.061,2.007,3.113,70.36,0,110.1,13.24,2.77,37.5
"2016-05-02 00:16:00",1596923,3.003,86.3,9.34,1.363,7.607,101.0653,2.017,3.281,70.56,0,110.1,13.24,2.78,48.3
"2016-05-02 00:16:30",1596924,2.472,68.75,6.904,1.381,6.92,101.0662,2.02,3.247,70.6,0,110.1,13.25,2.78,30.8
"2016-05-02 00:17:00",1596925,1.155,61.97,5.785,0.986,4.409,101.0653,2.017,3.073,70.56,0,110.1,13.25,2.78,24.0
"2016-05-02 00:17:30",1596926,1.952,77.3,10.38,1.382,6.216,101.065,2.017,3.162,70.74,0,110.1,13.24,2.78,39.3
"2016-05-02 00:18:00",1596927,1.267,80.3,11.69,1.132,6.174,101.0605,2.005,3.189,70.91,0,110.1,13.25,2.76,42.3
"2016-05-02 00:18:30",1596928,0.696,79.2,5.293,0.064,4.878,101.0574,1.997,3.045,70.92,0,110.1,13.29,2.76,41.2
"2016-05-02 00:19:00",1596929,0.64,79.63,4.56,0.08,4.729,101.0462,1.969,3.043,71.1,0,110.1,13.29,2.73,41.6
"2016-05-02 00:19:30",1596930,1.78,77.99,7.77,1.283,5.714,101.0414,1.956,3.153,71.34,0,110.1,13.25,2.72,40.0
"2016-05-02 00:20:00",1596931,2.205,69.98,8.03,1.352,6.354,101.0406,1.954,3.214,71.5,0,110,13.25,2.71,32.0
"2016-05-02 00:20:30",1596932,2.437,75.08,6.531,1.369,6.951,101.0423,1.959,3.203,71.5,0,110,13.25,2.72,37.1
"2016-05-02 00:21:00",1596933,0.976,68.85,2.301,0.124,4.241,101.0428,1.96,3.123,71.45,0,110,13.3,2.72,30.8
"2016-05-02 00:21:30",1596934,2.522,75.79,7.555,1.409,7.03,101.0428,1.96,3.219,71.64,0,110,13.25,2.72,37.8
"2016-05-02 00:22:00",1596935,1.732,80.8,8.77,1.319,6.392,101.0431,1.961,3.12,71.58,0,110,13.25,2.72,42.8
"2016-05-02 00:22:30",1596936,0.863,79.5,5.823,0.107,4.866,101.0471,1.971,3.017,71.34,0,110,13.3,2.73,41.5
"2016-05-02 00:23:00",1596937,1.219,76.5,4.497,0.825,5.386,101.0477,1.973,3.112,71.38,0,110,13.25,2.73,38.5
"2016-05-02 00:23:30",1596938,2.106,71.89,6.785,1.333,6.304,101.042,1.958,3.124,71.39,0,110,13.25,2.72,33.9
"2016-05-02 00:24:00",1596939,2.289,62.83,6.02,1.418,6.235,101.0342,1.938,3.18,71.41,0,110,13.24,2.70,24.8
"2016-05-02 00:24:30",1596940,2.656,63.65,8.04,1.31,5.853,101.0226,1.908,3.094,71.2,0,110,13.25,2.67,25.7
"2016-05-02 00:25:00",1596941,2.098,61.6,7.738,1.191,5.522,101.0172,1.895,3.115,71,0,110,13.25,2.65,23.6
"2016-05-02 00:25:30",1596942,1.89,65.44,9.52,1.426,6.989,101.017,1.894,3.168,70.91,0,110,13.24,2.65,27.4
"2016-05-02 00:26:00",1596943,0.807,65.61,13.87,0.216,4.469,101.017,1.894,2.969,70.66,0,110,13.29,2.65,27.6
"2016-05-02 00:26:30",1596944,1.491,82.5,6.297,0.268,4.967,101.0158,1.891,3.05,70.67,0,110,13.29,2.65,44.5
"2016-05-02 00:27:00",1596945,2.711,89.3,8.29,1.37,7.225,101.0065,1.867,3.08,70.59,0,110,13.25,2.63,51.3
"2016-05-02 00:27:30",1596946,2.069,67.52,10.57,1.295,6.232,100.9969,1.843,3.124,70.63,0,110,13.25,2.60,29.5
"2016-05-02 00:28:00",1596947,2.406,58.09,7.64,1.293,5.422,100.9912,1.828,3.046,70.59,0,110,13.25,2.59,20.1
"2016-05-02 00:28:30",1596948,2.242,55.81,7.529,1.391,6.21,100.983,1.808,3.074,70.53,0,110,13.25,2.57,17.8
"2016-05-02 00:29:00",1596949,1.835,66.98,6.559,1.223,6.135,100.983,1.808,3.091,70.33,0,110,13.25,2.57,29.0
"2016-05-02 00:29:30",1596950,1.585,62.81,4.578,0.118,4.52,100.9723,1.78,2.896,70,0,110,13.3,2.54,24.8
"2016-05-02 00:30:00",1596951,2.33,71.27,9.43,1.369,5.747,100.961,1.751,2.965,69.88,0,110,13.26,2.51,33.3
"2016-05-02 00:30:30",1596952,2.216,81.9,6.164,1.362,6.795,100.9491,1.721,3.054,69.84,0,110,13.26,2.48,43.9
"2016-05-02 00:31:00",1596953,2.454,76.57,8.66,1.36,6.759,100.95,1.723,2.985,69.73,0,110,13.26,2.48,38.6
"2016-05-02 00:31:30",1596954,2.321,80.8,7.825,1.36,6.744,100.9492,1.721,3.026,69.78,0,110,13.26,2.48,42.8
"2016-05-02 00:32:00",1596955,2.564,82.5,7.242,1.366,7.145,100.9419,1.703,3.029,69.76,0,110,13.26,2.46,44.5
"2016-05-02 00:32:30",1596956,2.331,79.87,9.2,1.323,6.15,100.9445,1.709,2.907,69.76,0,110,13.26,2.47,41.9
"2016-05-02 00:33:00",1596957,1.306,75.56,4.114,0.12,4.791,100.9358,1.687,2.785,69.73,0,110,13.31,2.44,37.6
"2016-05-02 00:33:30",1596958,1.427,83.8,3.145,0.12,4.972,100.9381,1.693,2.832,69.84,0,110,13.31,2.45,45.8
"2016-05-02 00:34:00",1596959,2.851,88.7,8.07,1.364,7.599,100.9404,1.699,2.91,69.97,0,110,13.27,2.46,50.7
"2016-05-02 00:34:30",1596960,2.235,86.5,8.05,1.365,7.02,100.9327,1.679,2.942,70.05,0,110,13.27,2.44,48.5
"2016-05-02 00:35:00",1596961,1.748,83.7,5.227,1.132,5.742,100.9254,1.661,2.884,70.15,0,109.9,13.27,2.42,45.7
"2016-05-02 00:35:30",1596962,1.453,91.4,8.59,1.078,5.728,100.9156,1.635,2.847,70.34,0,109.9,13.27,2.39,53.4
"2016-05-02 00:36:00",1596963,1.624,95.7,8.73,1.309,6.696,100.9156,1.635,2.893,70.52,0,109.9,13.27,2.39,57.7
"2016-05-02 00:36:30",1596964,1.271,74.13,7.446,0.832,5.19,100.9156,1.635,2.735,70.49,0,109.9,13.27,2.39,36.1
"2016-05-02 00:37:00",1596965,0.966,69.77,3.301,0.056,4.363,100.9156,1.635,2.695,70.68,0,109.9,13.32,2.39,31.8
"2016-05-02 00:37:30",1596966,1.767,85,7.227,1.255,6.742,100.9136,1.63,2.86,71.08,0,109.9,13.27,2.39,47.0
"2016-05-02 00:38:00",1596967,1.658,84.3,8.03,1.334,6.531,100.9051,1.609,2.791,71.2,0,109.9,13.27,2.37,46.3
"2016-05-02 00:38:30",1596968,1.969,77.46,10.33,1.359,6.819,100.9,1.596,2.885,71.4,0,109.9,13.27,2.35,39.5
"2016-05-02 00:39:00",1596969,1.02,71.89,8.36,0.937,4.674,100.898,1.591,2.689,71.29,0,109.9,13.27,2.35,33.9
"2016-05-02 00:39:30",1596970,1.572,61.87,7.343,1.334,5.889,100.8862,1.56,2.853,71.49,0,109.9,13.28,2.32,23.9
"2016-05-02 00:40:00",1596971,1.501,67.23,7.97,1.273,6.075,100.8819,1.55,2.799,71.52,0,109.9,13.27,2.31,29.2
"2016-05-02 00:40:30",1596972,0.608,83.1,4.948,0.172,4.914,100.8816,1.549,2.658,71.43,0,109.9,13.32,2.31,45.1
"2016-05-02 00:41:00",1596973,0.873,77.9,5.877,0.075,4.821,100.8816,1.549,2.65,71.43,0,109.9,13.32,2.31,39.9
"2016-05-02 00:41:30",1596974,1.719,91,7.735,1.23,6.405,100.8766,1.536,2.832,71.61,0,109.9,13.27,2.29,53.0
"2016-05-02 00:42:00",1596975,3.127,98.3,6.963,1.254,8.2,100.8667,1.511,2.835,71.61,0,109.9,13.27,2.27,60.3
"2016-05-02 00:42:30",1596976,1.662,85.9,7.894,1.271,6.269,100.8641,1.504,2.809,71.58,0,109.9,13.27,2.26,47.9
"2016-05-02 00:43:00",1596977,1.713,97.8,8.13,1.339,6.002,100.859,1.491,2.744,71.56,0,109.9,13.27,2.25,59.8
"2016-05-02 00:43:30",1596978,1.459,80.3,9.54,1.198,6.493,100.8503,1.469,2.771,71.69,0,109.9,13.27,2.23,42.3
"2016-05-02 00:44:00",1596979,1.314,96.1,3.525,1.189,6.031,100.848,1.463,2.635,71.63,0,109.9,13.27,2.22,58.1
"2016-05-02 00:44:30",1596980,0.515,90.1,15.39,0.068,4.481,100.8492,1.466,2.582,71.64,0,109.9,13.32,2.22,52.1
"2016-05-02 00:45:00",1596981,1.37,70.54,7.773,1.229,5.818,100.8537,1.478,2.637,71.73,0,109.9,13.27,2.23,32.5
"2016-05-02 00:45:30",1596982,1.599,80.2,11.45,1.358,7.058,100.8532,1.476,2.782,71.97,0,109.9,13.28,2.23,42.2
"2016-05-02 00:46:00",1596983,1.749,88.8,8.21,1.446,7.212,100.847,1.46,2.787,72.04,0,109.9,13.28,2.22,50.8
"2016-05-02 00:46:30",1596984,1.313,117.8,10.67,1.286,5.825,100.8414,1.446,2.673,72.01,0,109.9,13.28,2.20,79.8
"2016-05-02 00:47:00",1596985,0.642,129.7,6.858,0.7,4.473,100.8386,1.439,2.642,72,0,109.9,13.28,2.20,91.7
"2016-05-02 00:47:30",1596986,1.738,133.4,9.6,1.422,6.559,100.838,1.438,2.688,72.06,0,109.9,13.28,2.19,95.4
"2016-05-02 00:48:00",1596987,1.094,124.6,7.499,1.168,5.777,100.8332,1.425,2.627,72.07,0,109.9,13.28,2.18,86.6
"2016-05-02 00:48:30",1596988,0.417,115.4,4.622,0.052,4.353,100.8389,1.44,2.528,72.02,0,109.9,13.33,2.20,77.4
"2016-05-02 00:49:00",1596989,1.249,118.1,8.99,1.149,5.555,100.8389,1.44,2.585,72.15,0,109.9,13.28,2.20,80.1
"2016-05-02 00:49:30",1596990,1.366,111.9,8.48,1.219,6.205,100.8375,1.436,2.689,72.27,0,109.9,13.29,2.19,73.9
"2016-05-02 00:50:00",1596991,1.868,97.2,7.436,1.354,6.505,100.8327,1.424,2.711,72.26,0,109.9,13.29,2.18,59.2
"2016-05-02 00:50:30",1596992,2.371,94.6,6.68,1.359,6.923,100.8254,1.405,2.644,72.22,0,109.9,13.29,2.16,56.6
"2016-05-02 00:51:00",1596993,1.233,90.4,4.281,0.953,4.816,100.8169,1.384,2.592,72.18,0,109.9,13.29,2.14,52.4
"2016-05-02 00:51:30",1596994,1.84,90.8,7.204,1.399,6.595,100.8118,1.371,2.614,72.21,0,109.9,13.29,2.13,52.8
"2016-05-02 00:52:00",1596995,0.653,94,7.686,0.287,5.118,100.813,1.374,2.54,72.21,0,109.9,13.33,2.13,56.0
"2016-05-02 00:52:30",1596996,0.517,100.5,3.31,0.068,4.651,100.8141,1.377,2.478,72.23,0,109.9,13.33,2.13,62.5
"2016-05-02 00:53:00",1596997,1.143,87.6,6.097,1.214,5.969,100.8138,1.376,2.561,72.45,0,109.9,13.29,2.13,49.6
"2016-05-02 00:53:30",1596998,1.984,90.9,8.05,1.344,6.468,100.8141,1.377,2.58,72.58,0,109.9,13.29,2.13,52.9
"2016-05-02 00:54:00",1596999,1.673,95.7,12.83,1.364,6.215,100.813,1.374,2.564,72.69,0,109.9,13.29,2.13,57.7
"2016-05-02 00:54:30",1597000,1.324,106.2,9.56,1.243,5.569,100.8056,1.355,2.531,72.72,0,109.9,13.29,2.11,68.2
"2016-05-02 00:55:00",1597001,0.482,105.5,3.605,0.54,4.489,100.8,1.341,2.506,72.72,0,109.9,13.29,2.10,67.5
"2016-05-02 00:55:30",1597002,1.742,114.4,10.59,1.39,6.868,100.7969,1.333,2.576,72.82,0,109.9,13.29,2.09,76.4
"2016-05-02 00:56:00",1597003,0.429,110.1,5.121,0.085,4.557,100.7957,1.33,2.46,72.75,0,109.9,13.33,2.09,72.1
"2016-05-02 00:56:30",1597004,0.551,105.3,2.948,0.053,4.566,100.7966,1.332,2.425,72.79,0,109.9,13.33,2.09,67.3
"2016-05-02 00:57:00",1597005,0.891,107.7,4.104,0.919,5.508,100.794,1.325,2.53,72.97,0,109.9,13.29,2.08,69.7
"2016-05-02 00:57:30",1597006,1.222,98.7,8.71,1.285,6.454,100.7875,1.309,2.509,73.02,0,109.9,13.29,2.07,60.7
"2016-05-02 00:58:00",1597007,1.288,101.6,9.9,1.397,6.451,100.7824,1.296,2.613,73.19,0,109.9,13.29,2.05,63.6
"2016-05-02 00:58:30",1597008,1.076,128.9,15,1.391,6.1,100.7808,1.291,2.542,73.22,0,109.9,13.29,2.05,90.9
"2016-05-02 00:59:00",1597009,0.059,123.8,7.608,0.103,3.852,100.7802,1.29,2.392,73.23,0,109.9,13.33,2.05,85.8
"2016-05-02 00:59:30",1597010,1.028,127.6,7.738,1.233,5.076,100.7802,1.29,2.478,73.44,0,109.9,13.29,2.05,89.6
"2016-05-02 01:00:00",1597011,1.577,134.7,15.3,1.371,7.073,100.7816,1.294,2.58,73.61,0,109.9,13.29,2.05,96.7
"2016-05-02 01:00:30",1597012,0.139,130.8,5.99,0.062,4.163,100.7822,1.295,2.398,73.26,0,109.8,13.34,2.05,92.8
"2016-05-02 01:01:00",1597013,0.011,146.6,6.309,0.063,4.319,100.7833,1.298,2.387,73.07,0,109.9,13.34,2.05,108.6
"2016-05-02 01:01:30",1597014,0.302,167.4,10.2,0.975,5.326,100.7847,1.302,2.499,73.33,0,109.8,13.29,2.06,129.4
"2016-05-02 01:02:00",1597015,1.113,175.2,9.56,1.342,6.274,100.785,1.302,2.487,72.93,0,109.8,13.29,2.06,137.2
"2016-05-02 01:02:30",1597016,1.262,180.4,11.95,1.361,6.619,100.7876,1.309,2.57,72.67,0,109.8,13.29,2.07,142.4
"2016-05-02 01:03:00",1597017,0.707,177.9,4.892,1.165,6.345,100.7899,1.315,2.531,72.25,0,109.8,13.3,2.07,139.9
"2016-05-02 01:03:30",1597018,0.467,169.1,18.96,0.942,5.637,100.7904,1.316,2.423,72.36,0,109.8,13.3,2.07,131.1
"2016-05-02 01:04:00",1597019,0.015,139.6,6.124,0.053,3.934,100.791,1.318,2.42,72.86,0,109.8,13.35,2.07,101.6
"2016-05-02 01:04:30",1597020,1.605,157,7.5,1.422,6.941,100.7933,1.323,2.539,73.46,0,109.8,13.3,2.08,119.0
"2016-05-02 01:05:00",1597021,0.938,131.4,11.87,1.261,5.456,100.7947,1.327,2.498,73.79,0,109.8,13.3,2.08,93.4
"2016-05-02 01:05:30",1597022,0.223,106.4,4.739,0.071,4.169,100.7953,1.329,2.379,73.84,0,109.8,13.35,2.09,68.4
"2016-05-02 01:06:00",1597023,0.255,117.5,6.403,0.113,4.106,100.7962,1.331,2.37,73.15,0,109.8,13.35,2.09,79.5
"2016-05-02 01:06:30",1597024,1.918,132.8,7.347,1.394,6.994,100.7947,1.327,2.525,72.69,0,109.8,13.3,2.08,94.8
"2016-05-02 01:07:00",1597025,1.798,140.2,11.93,1.315,6.947,100.7965,1.332,2.526,72.19,0,109.8,13.3,2.09,102.2
"2016-05-02 01:07:30",1597026,1.153,135.8,13.61,1.31,5.531,100.7973,1.334,2.501,71.77,0,109.8,13.3,2.09,97.8
"2016-05-02 01:08:00",1597027,1.031,136.6,8.9,1.326,5.467,100.7979,1.335,2.409,71.4,0,109.8,13.3,2.09,98.6
"2016-05-02 01:08:30",1597028,0.758,141.7,10.5,1.25,5.558,100.7979,1.335,2.461,71.22,0,109.8,13.3,2.09,103.7
"2016-05-02 01:09:00",1597029,0.947,143.3,14.44,1.387,6.827,100.7984,1.337,2.552,71.09,0,109.8,13.3,2.09,105.3
"2016-05-02 01:09:30",1597030,-0.153,144.2,9.36,0.103,4.052,100.7981,1.336,2.341,70.7,0,109.8,13.35,2.09,106.2
"2016-05-02 01:10:00",1597031,-0.096,148.7,4.545,0.07,3.999,100.8024,1.347,2.325,70.44,0,109.8,13.35,2.10,110.7
"2016-05-02 01:10:30",1597032,-0.069,138.6,3.935,0.058,4.163,100.8013,1.344,2.341,70.32,0,109.8,13.35,2.10,100.6
"2016-05-02 01:11:00",1597033,0.822,148,6.299,1.145,5.557,100.8013,1.344,2.427,70.48,0,109.8,13.31,2.10,110.0
"2016-05-02 01:11:30",1597034,0.638,150.9,9.72,1.227,6.043,100.8033,1.349,2.499,71.01,0,109.8,13.31,2.11,112.9
"2016-05-02 01:12:00",1597035,0.641,153.9,9.24,1.263,5.925,100.8047,1.353,2.471,71.54,0,109.8,13.31,2.11,115.9
"2016-05-02 01:12:30",1597036,0.768,150,8.05,1.3,5.158,100.8058,1.355,2.46,72.09,0,109.8,13.3,2.11,112.0
"2016-05-02 01:13:00",1597037,0.233,133.6,15.81,1.036,4.818,100.8058,1.355,2.435,72.57,0,109.8,13.31,2.11,95.6
"2016-05-02 01:13:30",1597038,0.37,128.5,13.61,1.187,5.003,100.805,1.353,2.407,72.93,0,109.8,13.3,2.11,90.5
"2016-05-02 01:14:00",1597039,0.67,150.2,16.68,1.345,6.709,100.8055,1.355,2.584,73.44,0,109.8,13.3,2.11,112.2
"2016-05-02 01:14:30",1597040,-0.003,86.9,49.33,0.949,5.031,100.8058,1.355,2.368,73.41,0,109.8,13.31,2.11,48.9
"2016-05-02 01:15:00",1597041,-0.242,30.7,16.09,0.093,3.322,100.8058,1.355,2.377,73.58,0,109.8,13.34,2.11,352.7
"2016-05-02 01:15:30",1597042,-0.135,34.78,7.646,0.097,3.433,100.8058,1.355,2.381,73.82,0,109.8,13.35,2.11,356.8
"2016-05-02 01:16:00",1597043,-0.329,106.8,31.72,0.028,3.461,100.8073,1.359,2.402,74.2,0,109.8,13.34,2.12,68.8
"2016-05-02 01:16:30",1597044,-0.347,125.9,20.67,0.006,3.649,100.8067,1.358,2.405,74.5,0,109.8,13.35,2.11,87.9
"2016-05-02 01:17:00",1597045,-0.338,115.5,22.69,0.01,4.419,100.8078,1.361,2.409,74.7,0,109.8,13.35,2.12,77.5
"2016-05-02 01:17:30",1597046,0.449,128.3,27.52,1.222,5.43,100.8095,1.365,2.546,75,0,109.8,13.3,2.12,90.3
"2016-05-02 01:18:00",1597047,0.805,334,70.74,1.34,5.762,100.8101,1.366,2.509,75.16,0,109.8,13.3,2.12,296.0
"2016-05-02 01:18:30",1597048,-0.235,10.77,10.74,0.085,3.806,100.8098,1.366,2.419,75.28,0,109.8,13.35,2.12,332.8
"2016-05-02 01:19:00",1597049,-0.203,359.3,12.34,0.064,3.716,100.8095,1.365,2.437,75.44,0,109.8,13.35,2.12,321.3
"2016-05-02 01:19:30",1597050,1.037,86.4,40.81,1.371,5.768,100.8101,1.366,2.578,75.66,0,109.8,13.31,2.12,48.4
"2016-05-02 01:20:00",1597051,1.245,105.1,16.59,1.352,6.703,100.8098,1.366,2.609,75.59,0,109.8,13.31,2.12,67.1
"2016-05-02 01:20:30",1597052,1.283,94.2,13.95,1.376,6.758,100.8104,1.367,2.595,75.52,0,109.8,13.31,2.12,56.2
"2016-05-02 01:21:00",1597053,-0.22,72.22,10.76,0.03,4.19,100.813,1.374,2.429,75.35,0,109.8,13.36,2.13,34.2
"2016-05-02 01:21:30",1597054,-0.177,67.21,5.86,0.042,4.235,100.8144,1.377,2.423,75.37,0,109.8,13.36,2.13,29.2
"2016-05-02 01:22:00",1597055,-0.108,66.32,9.51,0.075,4.278,100.8141,1.377,2.426,75.45,0,109.8,13.36,2.13,28.3
"2016-05-02 01:22:30",1597056,-0.183,90.3,11.81,0.045,4.698,100.8135,1.375,2.439,75.51,0,109.8,13.36,2.13,52.3
"2016-05-02 01:23:00",1597057,-0.078,60.28,6.661,0.045,4.391,100.8135,1.375,2.419,75.59,0,109.8,13.36,2.13,22.3
"2016-05-02 01:23:30",1597058,0.733,54.14,7.166,1.248,6.409,100.8138,1.376,2.559,75.78,0,109.8,13.31,2.13,16.1
"2016-05-02 01:24:00",1597059,0.931,83.4,11.87,1.321,6.706,100.8121,1.371,2.579,75.88,0,109.8,13.31,2.13,45.4
"2016-05-02 01:24:30",1597060,-0.108,56.42,6.321,0.035,4.469,100.8107,1.368,2.425,75.84,0,109.8,13.36,2.12,18.4
"2016-05-02 01:25:00",1597061,0.548,42.05,9.24,1.188,5.581,100.8099,1.366,2.532,76.02,0,109.8,13.31,2.12,4.0
"2016-05-02 01:25:30",1597062,0.537,49.71,10.83,1.177,5.29,100.8113,1.369,2.589,76.14,0,109.8,13.31,2.13,11.7
"2016-05-02 01:26:00",1597063,0.994,53.51,8.98,1.362,6.552,100.8084,1.362,2.565,76.22,0,109.8,13.31,2.12,15.5
"2016-05-02 01:26:30",1597064,0.603,41.5,4.917,1.225,5.626,100.809,1.364,2.537,76.24,0,109.8,13.31,2.12,3.5
"2016-05-02 01:27:00",1597065,-0.187,31.16,6.798,0.028,3.965,100.8067,1.358,2.43,76.23,0,109.8,13.36,2.11,353.2
"2016-05-02 01:27:30",1597066,-0.238,22.72,3.802,0.037,3.751,100.807,1.358,2.435,76.32,0,109.8,13.36,2.12,344.7
"2016-05-02 01:28:00",1597067,-0.217,17.38,2.647,0.031,3.805,100.8062,1.356,2.449,76.37,0,109.8,13.36,2.11,339.4
"2016-05-02 01:28:30",1597068,-0.244,22.34,4.48,0.034,4.057,100.8073,1.359,2.428,76.4,0,109.8,13.36,2.12,344.3
"2016-05-02 01:29:00",1597069,0.13,33.24,5.907,0.86,5.183,100.807,1.358,2.543,76.58,0,109.8,13.31,2.12,355.2
"2016-05-02 01:29:30",1597070,0.83,10.52,16.16,1.347,6.024,100.8084,1.362,2.546,76.67,0,109.8,13.31,2.12,332.5
"2016-05-02 01:30:00",1597071,-0.279,1.848,12.04,0.051,3.956,100.8079,1.361,2.44,76.59,0,109.8,13.35,2.12,323.8
"2016-05-02 01:30:30",1597072,-0.076,5.775,15.05,0.159,3.424,100.8104,1.367,2.428,76.52,0,109.8,13.36,2.12,327.8
"2016-05-02 01:31:00",1597073,0.032,26.53,6.441,0.034,3.444,100.8116,1.37,2.442,76.58,0,109.8,13.35,2.13,348.5
"2016-05-02 01:31:30",1597074,0.996,25.7,9.25,1.301,5.067,100.813,1.374,2.518,76.78,0,109.8,13.31,2.13,347.7
"2016-05-02 01:32:00",1597075,1.779,28.33,7.277,1.335,7.377,100.8127,1.373,2.689,77.1,0,109.8,13.31,2.13,350.3
"2016-05-02 01:32:30",1597076,0.505,28.67,5.846,1.07,4.649,100.8121,1.371,2.531,77.06,0,109.8,13.31,2.13,350.7
"2016-05-02 01:33:00",1597077,-0.114,0.67,10.63,0.054,3.961,100.8118,1.371,2.443,77.04,0,109.8,13.35,2.13,322.7
"2016-05-02 01:33:30",1597078,-0.324,359,18.48,0.04,3.671,100.8096,1.365,2.442,77.12,0,109.8,13.35,2.12,321.0
"2016-05-02 01:34:00",1597079,-0.255,24.73,14.46,0.096,3.974,100.8087,1.363,2.442,77.06,0,109.8,13.35,2.12,346.7
"2016-05-02 01:34:30",1597080,0.531,26.34,7.696,1.205,5.912,100.8056,1.355,2.63,77.06,0,109.8,13.31,2.11,348.3
"2016-05-02 01:35:00",1597081,0.436,25.82,8.36,1.205,5.498,100.8031,1.348,2.527,76.54,0,109.8,13.31,2.11,347.8
"2016-05-02 01:35:30",1597082,-0.213,33.45,7.549,0.052,4.124,100.8088,1.363,2.434,76.09,0,109.8,13.35,2.12,355.5
"2016-05-02 01:36:00",1597083,-0.161,38.07,3.022,0.037,3.955,100.8127,1.373,2.43,76.2,0,109.8,13.36,2.13,0.1
"2016-05-02 01:36:30",1597084,-0.193,35.47,6.136,0.023,3.889,100.8133,1.374,2.441,76.4,0,109.8,13.36,2.13,357.5
"2016-05-02 01:37:00",1597085,-0.187,41.19,6.771,0.031,3.855,100.8113,1.369,2.453,76.39,0,109.8,13.36,2.13,3.2
"2016-05-02 01:37:30",1597086,1.221,58.25,7.557,1.401,6.669,100.8037,1.35,2.597,75.86,0,109.8,13.32,2.11,20.2
"2016-05-02 01:38:00",1597087,1.405,65.65,8.84,1.349,7.626,100.8054,1.354,2.665,74.95,0,109.8,13.32,2.11,27.7
"2016-05-02 01:38:30",1597088,0.367,70.15,5.686,1.179,5.542,100.804,1.351,2.445,73.68,0,109.8,13.32,2.11,32.2
"2016-05-02 01:39:00",1597089,-0.35,73.2,9.73,0.017,4.673,100.8057,1.355,2.399,72.72,0,109.8,13.37,2.11,35.2
"2016-05-02 01:39:30",1597090,-0.263,76.87,8.99,0.073,4.383,100.8034,1.349,2.389,71.94,0,109.8,13.37,2.11,38.9
"2016-05-02 01:40:00",1597091,-0.21,71.39,5.533,0.048,4.213,100.8032,1.349,2.365,71.41,0,109.8,13.37,2.11,33.4
"2016-05-02 01:40:30",1597092,-0.222,69.96,4.595,0.032,4.372,100.8009,1.343,2.37,71.17,0,109.8,13.37,2.10,32.0
"2016-05-02 01:41:00",1597093,0.574,51.05,8.57,1.278,6.07,100.8018,1.345,2.552,71.25,0,109.8,13.32,2.10,13.0
"2016-05-02 01:41:30",1597094,0.237,36.95,9.56,1.132,5.172,100.8032,1.349,2.444,71.12,0,109.8,13.32,2.11,359.0
"2016-05-02 01:42:00",1597095,-0.343,23.27,18.57,0.022,3.718,100.8003,1.341,2.364,70.9,0,109.8,13.37,2.10,345.3
"2016-05-02 01:42:30",1597096,-0.359,354.5,23.47,0,3.542,100.8012,1.344,2.359,70.81,0,109.8,13.37,2.10,316.5
"2016-05-02 01:43:00",1597097,-0.354,3.508,36.93,0.008,3.857,100.7978,1.335,2.375,70.77,0,109.8,13.37,2.09,325.5
"2016-05-02 01:43:30",1597098,-0.357,338.8,29.25,0.005,3.933,100.7984,1.336,2.37,70.74,0,109.8,13.37,2.09,300.8
"2016-05-02 01:44:00",1597099,0.488,348.7,14.47,1.279,5.283,100.8009,1.343,2.446,70.68,0,109.8,13.32,2.10,310.7
"2016-05-02 01:44:30",1597100,0.684,321.6,10.66,1.32,5.897,100.8004,1.342,2.581,70.73,0,109.8,13.33,2.10,283.6
"2016-05-02 01:45:00",1597101,0.546,335.3,17.58,1.271,5.433,100.7992,1.339,2.573,70.64,0,109.8,13.33,2.10,297.3
"2016-05-02 01:45:30",1597102,0.304,328.2,14.96,0.981,4.307,100.8027,1.347,2.425,70.72,0,109.8,13.32,2.10,290.2
"2016-05-02 01:46:00",1597103,-0.109,313,5.258,0.035,3.718,100.7981,1.336,2.377,70.55,0,109.8,13.37,2.09,275.0
"2016-05-02 01:46:30",1597104,-0.048,304.9,3.497,0.048,3.804,100.7981,1.336,2.381,70.27,0,109.8,13.37,2.09,266.9
"2016-05-02 01:47:00",1597105,0.82,316.8,8.91,1.312,5.824,100.7984,1.336,2.478,70.12,0,109.8,13.32,2.09,278.8
"2016-05-02 01:47:30",1597106,0.914,343.6,11.8,1.338,6.062,100.7984,1.336,2.494,70.08,0,109.8,13.32,2.09,305.6
"2016-05-02 01:48:00",1597107,-0.112,337.5,10.73,0.059,3.697,100.7995,1.339,2.377,70.49,0,109.8,13.37,2.10,299.5
"2016-05-02 01:48:30",1597108,-0.057,311.3,3.366,0.056,3.814,100.8007,1.342,2.376,71.17,0,109.8,13.36,2.10,273.3
"2016-05-02 01:49:00",1597109,0.026,325.3,6.674,0.051,3.493,100.8015,1.345,2.382,71.64,0,109.8,13.36,2.10,287.3